Location: Ellerstadt
(49.4644°N, 8.2615°E)
Time: 11:48:29
(UTC+00:00)

USA 307 - Pass Details

Date: 03 March 2021
Orbit: 567 x 577 km, 54.0° (Epoch: 13 April)

Event Time Altitude Azimuth Distance (km) Brightness Sun altitude
Rises 18:16:07 0° 272° (W) 2,785 8.7 -11.0°
Reaches altitude 10° 18:18:27 10° 278° (W) 1,885 7.1 -11.4°
Maximum altitude 18:22:35 47° 353° (N) 769 3.6 -12.1°
Enters shadow 18:25:53 15° 64° (ENE) 1,567 4.6 -12.6°
